timestamp,surface_pressure_avg,surface_temp_avg,battery_voltage,lat,long
2022-11-27 00:09:00+00:00,340.858,4.94,12.49,47.84626,-54.09684
2022-11-27 00:19:00+00:00,345.0847,5.5,12.49,47.84626,-54.09684
2022-11-27 00:29:00+00:00,353.2096,5.48,12.49,47.84626,-54.09684
2022-11-27 00:39:00+00:00,362.1145,5.4,12.49,47.84626,-54.09684
2022-11-27 00:49:00+00:00,363.3096,5.39,12.49,47.84626,-54.09684
2022-11-27 00:59:00+00:00,358.17800000000005,5.55,12.49,47.84626,-54.09684
2022-11-27 01:09:00+00:00,360.713,5.6,12.49,47.84626,-54.09684
2022-11-27 01:19:00+00:00,363.4995,5.6,12.49,47.84626,-54.09684
2022-11-27 01:29:00+00:00,358.2795,5.5,12.49,47.84626,-54.09684
2022-11-27 01:39:00+00:00,356.7913,5.4,12.49,47.84626,-54.09684
2022-11-27 01:49:00+00:00,363.3412,5.4,12.49,47.84626,-54.09684
2022-11-27 01:59:00+00:00,363.1462,5.4,12.49,47.84626,-54.09684
2022-11-27 02:09:00+00:00,352.778,5.25,12.49,47.84626,-54.09684
2022-11-27 02:19:00+00:00,353.0946,5.4,12.49,47.84626,-54.09684
2022-11-27 02:29:00+00:00,362.1195,5.39,12.49,47.84626,-54.09684
2022-11-27 02:39:00+00:00,353.298,5.26,12.49,47.84626,-54.09684
2022-11-27 02:49:00+00:00,345.9463,5.1,12.49,47.84626,-54.09684
2022-11-27 02:59:00+00:00,356.76300000000015,5.27,12.49,47.84626,-54.09684
2022-11-27 03:09:00+00:00,359.9146,5.3,12.49,47.84626,-54.09684
2022-11-27 03:19:00+00:00,344.48800000000006,4.96,12.49,47.84626,-54.09684
2022-11-27 03:29:00+00:00,330.3646,5.17,12.49,47.84626,-54.09684
2022-11-27 03:39:00+00:00,334.3479,5.2,12.49,47.84626,-54.09684
2022-11-27 03:49:00+00:00,336.2014,5.0,12.49,47.84626,-54.09684
2022-11-27 03:59:00+00:00,324.5598,5.0,12.49,47.84626,-54.09684
2022-11-27 04:09:00+00:00,315.903,5.01,12.49,47.84626,-54.09684
2022-11-27 04:19:00+00:00,320.313,5.04,12.49,47.84626,-54.09684
2022-11-27 04:29:00+00:00,322.1163,5.08,12.49,47.84626,-54.09684
2022-11-27 04:39:00+00:00,308.543,5.0,12.49,47.84626,-54.09684
2022-11-27 04:49:00+00:00,298.6347,4.9,12.49,47.84626,-54.09684
2022-11-27 04:59:00+00:00,300.7147,4.9,12.49,47.84626,-54.09684
2022-11-27 05:09:00+00:00,289.4697,4.9,12.49,47.84626,-54.09684
2022-11-27 05:19:01+00:00,262.6797,4.9,12.49,47.84626,-54.09684
2022-11-27 05:29:01+00:00,254.1164,4.9,12.49,47.84626,-54.09684
2022-11-27 05:39:01+00:00,258.4198,4.96,12.49,47.84626,-54.09684
2022-11-27 05:49:01+00:00,246.5348,4.95,12.49,47.84626,-54.09684
2022-11-27 05:59:01+00:00,227.2347,4.9,12.49,47.84626,-54.09684
2022-11-27 06:09:01+00:00,230.2698,4.9,12.49,47.84626,-54.09684
2022-11-27 06:19:00+00:00,235.9214,4.9,12.49,47.84626,-54.09684
2022-11-27 06:29:00+00:00,227.8914,4.9,12.49,47.84626,-54.09684
2022-11-27 06:39:00+00:00,215.2231,4.9,12.49,47.84626,-54.09684
2022-11-27 06:49:00+00:00,210.1364,4.9,12.49,47.84626,-54.09684
2022-11-27 06:59:00+00:00,210.8281,4.9,12.49,47.84626,-54.09684
2022-11-27 07:09:00+00:00,208.2764,4.9,12.49,47.84626,-54.09684
2022-11-27 07:19:00+00:00,208.4331,4.9,12.49,47.84626,-54.09684
2022-11-27 07:29:00+00:00,213.6998,4.86,12.49,47.84626,-54.09684
2022-11-27 07:39:00+00:00,205.0765,4.9,12.49,47.84626,-54.09684
2022-11-27 07:49:00+00:00,196.7548,4.86,12.49,47.84626,-54.09684
2022-11-27 07:59:00+00:00,207.8931,4.87,12.49,47.84626,-54.09684
2022-11-27 08:09:00+00:00,217.6781,4.9,12.49,47.84626,-54.09684
2022-11-27 08:19:00+00:00,214.8381,4.94,12.49,47.84626,-54.09684
2022-11-27 08:29:00+00:00,216.5131,5.0,12.49,47.84626,-54.09684
2022-11-27 08:39:00+00:00,224.4648,5.0,12.49,47.84626,-54.09684
2022-11-27 08:49:00+00:00,225.9947,5.0,12.49,47.84626,-54.09684
2022-11-27 08:59:00+00:00,225.5714,5.1,12.49,47.84626,-54.09684
2022-11-27 09:09:00+00:00,225.698,5.19,12.49,47.84626,-54.09684
2022-11-27 09:19:01+00:00,228.2364,5.1,12.49,47.84626,-54.09684
2022-11-27 09:29:01+00:00,232.4864,5.1,12.49,47.84626,-54.09684
2022-11-27 09:39:01+00:00,237.4281,5.09,12.49,47.84626,-54.09684
2022-11-27 09:49:01+00:00,245.6597,5.0,12.49,47.84626,-54.09684
2022-11-27 09:59:01+00:00,253.1747,5.0,12.49,47.84626,-54.09684
2022-11-27 10:09:01+00:00,260.3331,5.07,12.49,47.84626,-54.09684
2022-11-27 10:19:01+00:00,269.1081,4.94,12.49,47.84626,-54.09684
2022-11-27 10:29:01+00:00,283.328,4.96,12.49,47.84626,-54.09684
2022-11-27 10:39:01+00:00,293.3113,5.3,12.49,47.84626,-54.09684
2022-11-27 10:49:01+00:00,299.323,5.2,12.49,47.84626,-54.09684
2022-11-27 10:59:01+00:00,306.868,5.35,12.49,47.84626,-54.09684
2022-11-27 11:09:01+00:00,315.043,5.4,12.49,47.84626,-54.09684
2022-11-27 11:19:00+00:00,322.5613,5.3,12.49,47.84626,-54.09684
2022-11-27 11:29:00+00:00,329.3246,5.1,12.49,47.84626,-54.09684
2022-11-27 11:39:00+00:00,332.1496,5.08,12.49,47.84626,-54.09684
2022-11-27 11:49:00+00:00,335.5163,5.2,12.49,47.84626,-54.09684
2022-11-27 11:59:00+00:00,343.6613,5.2,12.49,47.84626,-54.09684
2022-11-27 12:09:00+00:00,354.033,5.2,12.49,47.84626,-54.09684
2022-11-27 12:19:00+00:00,359.3779,5.26,12.57,47.84626,-54.09684
2022-11-27 12:29:00+00:00,357.5229,5.37,12.57,47.84626,-54.09684
2022-11-27 12:39:00+00:00,365.0646,5.4,12.57,47.84626,-54.09684
2022-11-27 12:49:00+00:00,378.7762,5.42,12.57,47.84626,-54.09684
2022-11-27 12:59:00+00:00,378.978,5.4,12.57,47.84626,-54.09684
2022-11-27 13:09:00+00:00,377.2279,5.4,12.57,47.84626,-54.09684
2022-11-27 13:19:01+00:00,382.3813,5.4,12.57,47.84626,-54.09684
2022-11-27 13:29:01+00:00,386.0963,5.4,12.57,47.84626,-54.09684
2022-11-27 13:39:01+00:00,381.473,5.4,12.57,47.84626,-54.09684
2022-11-27 13:49:01+00:00,392.2195,5.4,12.57,47.84626,-54.09684
2022-11-27 13:59:01+00:00,402.7413,5.3,12.57,47.84626,-54.09684
2022-11-27 14:09:01+00:00,393.3812,5.15,12.57,47.84626,-54.09684
2022-11-27 14:19:00+00:00,389.4312,5.35,12.57,47.84626,-54.09684
2022-11-27 14:29:00+00:00,398.1229,5.39,12.57,47.84626,-54.09684
2022-11-27 14:39:00+00:00,398.2296,5.4,12.57,47.84626,-54.09684
2022-11-27 14:49:00+00:00,385.9263,5.4,12.57,47.84626,-54.09684
2022-11-27 14:59:00+00:00,380.2195,5.49,12.57,47.84626,-54.09684
2022-11-27 15:09:00+00:00,382.6796,5.34,12.57,47.84626,-54.09684
2022-11-27 15:19:00+00:00,375.0745,5.3,12.57,47.84626,-54.09684
2022-11-27 15:29:00+00:00,367.9346,5.2,12.57,47.84626,-54.09684
2022-11-27 15:39:00+00:00,369.8497,5.3,12.57,47.84626,-54.09684
2022-11-27 15:49:00+00:00,371.2812,5.43,12.57,47.84626,-54.09684
2022-11-27 15:59:00+00:00,366.4395,5.6,12.57,47.84626,-54.09684
2022-11-27 16:09:00+00:00,365.6329,5.6,12.57,47.84626,-54.09684
2022-11-27 16:19:00+00:00,364.7896,5.59,12.57,47.84626,-54.09684
2022-11-27 16:29:00+00:00,354.0797,5.4,12.57,47.84626,-54.09684
2022-11-27 16:39:00+00:00,342.1163,5.34,12.57,47.84626,-54.09684
2022-11-27 16:49:00+00:00,340.2797,5.32,12.57,47.84626,-54.09684
2022-11-27 16:59:00+00:00,336.2213,5.3,12.57,47.84626,-54.09684
2022-11-27 17:09:00+00:00,325.5247,5.43,12.57,47.84626,-54.09684
2022-11-27 17:19:01+00:00,317.5197,5.5,12.57,47.84626,-54.09684
2022-11-27 17:29:01+00:00,312.0397,5.51,12.57,47.84626,-54.09684
2022-11-27 17:39:01+00:00,299.3414,5.5,12.57,47.84626,-54.09684
2022-11-27 17:49:01+00:00,280.6481,5.32,12.57,47.84626,-54.09684
2022-11-27 17:59:01+00:00,267.0531,5.34,12.57,47.84626,-54.09684
2022-11-27 18:09:01+00:00,254.8281,5.31,12.57,47.84626,-54.09684
2022-11-27 18:19:00+00:00,238.8664,5.3,12.57,47.84626,-54.09684
2022-11-27 18:29:00+00:00,226.4664,5.32,12.57,47.84626,-54.09684
2022-11-27 18:39:00+00:00,224.0047,5.37,12.57,47.84626,-54.09684
2022-11-27 18:49:00+00:00,219.1131,5.33,12.57,47.84626,-54.09684
2022-11-27 18:59:00+00:00,209.5448,5.4,12.57,47.84626,-54.09684
2022-11-27 19:09:00+00:00,203.4348,5.52,12.57,47.84626,-54.09684
2022-11-27 19:19:01+00:00,200.4348,5.58,12.57,47.84626,-54.09684
2022-11-27 19:29:01+00:00,196.2048,5.58,12.57,47.84626,-54.09684
2022-11-27 19:39:01+00:00,196.7565,5.58,12.57,47.84626,-54.09684
2022-11-27 19:49:01+00:00,196.0548,5.59,12.57,47.84626,-54.09684
2022-11-27 19:59:01+00:00,189.2598,5.5,12.57,47.84626,-54.09684
2022-11-27 20:09:01+00:00,188.7281,5.57,12.57,47.84626,-54.09684
2022-11-27 20:19:00+00:00,194.5981,5.6,12.49,47.84626,-54.09684
2022-11-27 20:29:00+00:00,194.9248,5.6,12.49,47.84626,-54.09684
2022-11-27 20:39:00+00:00,192.7431,5.6,12.49,47.84626,-54.09684
2022-11-27 20:49:00+00:00,199.4214,5.6,12.49,47.84626,-54.09684
2022-11-27 20:59:00+00:00,209.7248,5.59,12.49,47.84626,-54.09684
2022-11-27 21:09:00+00:00,209.2831,5.6,12.49,47.84626,-54.09684
2022-11-27 21:19:00+00:00,206.5064,5.6,12.49,47.84626,-54.09684
2022-11-27 21:29:00+00:00,209.5698,5.6,12.49,47.84626,-54.09684
2022-11-27 21:39:00+00:00,214.9531,5.59,12.49,47.84626,-54.09684
2022-11-27 21:49:00+00:00,219.8548,5.58,12.49,47.84626,-54.09684
2022-11-27 21:59:00+00:00,224.5614,5.56,12.49,47.84626,-54.09684
2022-11-27 22:09:00+00:00,231.7465,5.57,12.49,47.84626,-54.09684
2022-11-27 22:19:00+00:00,241.1331,5.5,12.49,47.84626,-54.09684
2022-11-27 22:29:00+00:00,245.3731,5.5,12.49,47.84626,-54.09684
2022-11-27 22:39:00+00:00,251.5764,5.49,12.49,47.84626,-54.09684
2022-11-27 22:49:00+00:00,261.4314,5.53,12.49,47.84626,-54.09684
2022-11-27 22:59:00+00:00,269.9631,5.6,12.49,47.84626,-54.09684
2022-11-27 23:09:00+00:00,272.773,5.6,12.49,47.84626,-54.09684
2022-11-27 23:19:01+00:00,277.6714,5.6,12.49,47.84626,-54.09684
2022-11-27 23:29:01+00:00,282.3314,5.65,12.49,47.84626,-54.09684
2022-11-27 23:39:01+00:00,283.4214,5.64,12.49,47.84626,-54.09684
2022-11-27 23:49:01+00:00,285.7997,5.67,12.49,47.84626,-54.09684
2022-11-27 23:59:01+00:00,292.1131,5.69,12.49,47.84626,-54.09684
